| time (UTC) | temp F | wind direction | speed knots | gust knots | rain 1hr in | rain 24hr in | rain mn in | humidity % | barometer mb |
| 20260504050017 | 51 | 0.0 | 0.0 | 0.00 | 0.00 | 0.00 | 63 | 1003.9 | |
| 20260504043017 | 53 | 0.0 | 0.0 | 0.00 | 0.00 | 0.00 | 54 | 1004.2 | |
| 20260504040017 | 55 | 270 | 0.9 | 2.6 | 0.00 | 0.00 | 0.00 | 49 | 1004.4 |
| 20260504033037 | 58 | 0.0 | 0.9 | 0.00 | 0.00 | 0.00 | 45 | 1004.7 | |
| 20260504030017 | 60 | 0.0 | 3.5 | 0.00 | 0.00 | 0.00 | 40 | 1004.9 | |
| 20260504023058 | 63 | 270 | 2.6 | 8.7 | 0.00 | 0.00 | 0.00 | 37 | 1004.8 |
| 20260504020017 | 65 | 248 | 2.6 | 7.0 | 0.00 | 0.00 | 0.00 | 32 | 1004.6 |
| 20260504013017 | 67 | 270 | 2.6 | 5.2 | 0.00 | 0.00 | 0.00 | 31 | 1004.2 |
| 20260504010017 | 69 | 270 | 2.6 | 9.6 | 0.00 | 0.00 | 0.00 | 29 | 1003.9 |
| 20260504003017 | 71 | 270 | 5.2 | 15.6 | 0.00 | 0.00 | 0.00 | 27 | 1004.0 |
| 20260504000038 | 73 | 270 | 6.1 | 17.4 | 0.00 | 0.00 | 0.00 | 25 | 1003.9 |
| 20260503233017 | 75 | 270 | 3.5 | 14.8 | 0.00 | 0.00 | 0.00 | 25 | 1003.9 |
| 20260503230017 | 76 | 293 | 3.5 | 14.8 | 0.00 | 0.00 | 0.00 | 24 | 1003.9 |
| 20260503223017 | 77 | 270 | 5.2 | 19.1 | 0.00 | 0.00 | 0.00 | 25 | 1003.8 |
| 20260503220017 | 77 | 293 | 6.1 | 21.7 | 0.00 | 0.00 | 0.00 | 25 | 1003.8 |
| 20260503213036 | 78 | 293 | 5.2 | 19.1 | 0.00 | 0.00 | 0.00 | 25 | 1003.8 |
| 20260503210037 | 78 | 315 | 5.2 | 15.6 | 0.00 | 0.00 | 0.00 | 27 | 1003.9 |
| 20260503203017 | 78 | 293 | 7.0 | 25.2 | 0.00 | 0.00 | 0.00 | 29 | 1004.1 |
| 20260503200017 | 78 | 293 | 7.0 | 21.7 | 0.00 | 0.00 | 0.00 | 27 | 1004.2 |
| 20260503193017 | 77 | 293 | 6.1 | 19.1 | 0.00 | 0.00 | 0.00 | 28 | 1004.4 |
| 20260503190017 | 76 | 270 | 6.1 | 17.4 | 0.00 | 0.00 | 0.00 | 31 | 1004.4 |
| 20260503183017 | 75 | 270 | 6.1 | 17.4 | 0.00 | 0.00 | 0.00 | 31 | 1004.6 |
| 20260503180037 | 73 | 225 | 6.1 | 15.6 | 0.00 | 0.00 | 0.00 | 36 | 1004.9 |
| 20260503173017 | 70 | 225 | 7.0 | 20.9 | 0.00 | 0.00 | 0.00 | 39 | 1005.2 |
| 20260503170107 | 68 | 225 | 7.0 | 19.1 | 0.00 | 0.00 | 0.00 | 39 | 1005.5 |